Theta_e
288 288 288 288 288 288 287 287 287 287 287 287 288 287 287 287 287 286 286 286 286 286 286 287 287 287 287 287 287 287 287 288 289 289 290 290 290 289 289 289 289 289 290 291 291 291 291 291 291 290 290 290 290 290 289 290 290 290 290 290 290 290 290 291 291 292 292 293 294 294 294 295 295 295 295 295 296 296 296 296 297 297 297 297 297 296
288 288 288 288 288 287 287 287 287 287 287 287 287 287 287 286 286 286 286 286 286 287 287 287 287 287 287 287 287 287 288 289 289 289 289 289 289 288 288 288 289 290 290 291 291 291 290 290 290 289 289 289 289 289 289 289 290 290 290 289 289 290 290 290 291 291 292 292 292 293 293 293 293 294 294 295 296 296 296 296 296 297 297 297 296 296
288 288 288 288 287 287 287 287 287 287 287 287 287 286 286 286 286 286 286 287 287 287 288 288 287 287 287 287 287 288 288 289 289 289 288 288 288 288 288 288 289 289 290 290 290 289 289 289 289 288 288 289 289 289 289 289 289 289 289 289 289 289 290 290 290 291 291 291 292 292 292 293 293 294 294 295 295 295 295 296 296 297 297 296 296 296
288 288 288 287 287 287 287 287 287 287 287 286 286 286 286 286 286 287 287 287 287 287 287 287 287 287 287 287 287 287 288 288 288 287 287 287 287 287 287 288 288 288 288 288 288 288 288 288 288 288 288 288 288 289 289 289 289 288 288 289 289 289 290 290 291 291 291 292 292 293 293 294 294 294 294 295 295 295 295 295 296 296 296 296 296 297
288 288 287 287 287 287 287 287 286 286 286 286 286 286 286 287 287 287 287 287 287 287 286 286 286 286 286 286 286 286 287 286 286 286 286 286 286 286 286 286 286 287 287 287 287 287 287 287 287 288 288 288 288 288 288 288 288 288 288 289 289 290 290 291 291 292 292 292 293 293 293 293 294 294 294 294 295 295 295 295 295 295 295 295 296 297
288 287 287 287 286 286 286 286 286 286 286 286 287 287 287 287 287 287 286 286 286 285 285 285 285 285 285 285 285 285 285 285 285 285 285 285 285 285 285 286 286 286 286 286 286 287 287 287 287 287 288 288 288 288 288 288 288 288 288 289 289 290 290 291 291 292 292 292 292 292 292 292 292 292 293 293 294 294 294 294 294 294 294 295 296 296
287 287 286 286 286 286 286 286 286 286 286 287 287 287 287 286 286 285 285 284 284 284 284 284 284 285 284 284 284 284 284 284 284 284 284 284 284 285 285 285 285 285 286 286 286 286 286 287 287 287 287 288 288 287 287 287 287 288 288 288 289 289 290 290 291 291 291 291 291 291 291 291 291 291 291 292 292 293 293 293 293 294 294 295 296 296
286 286 286 286 286 286 286 286 286 287 287 287 287 287 286 285 285 284 284 284 284 284 284 284 284 284 284 284 283 283 283 283 283 283 284 284 284 284 285 285 285 285 285 285 285 286 286 286 287 287 287 287 287 287 287 287 287 287 287 288 288 288 289 289 289 290 290 290 290 290 291 291 291 291 291 291 292 292 292 293 293 294 294 295 295 296
286 285 285 285 286 286 286 287 287 287 287 287 286 285 284 284 284 284 284 284 284 283 283 283 283 283 283 283 283 283 283 283 283 283 283 284 284 284 284 284 285 285 285 285 285 285 286 286 286 287 287 287 287 286 286 286 286 287 287 287 287 288 288 288 289 289 289 289 290 290 291 291 291 291 291 292 292 292 292 293 293 293 293 294 295 295
286 285 286 286 286 286 287 287 287 286 286 285 285 284 284 284 284 284 284 283 283 283 283 283 283 283 283 283 283 283 283 283 283 283 284 284 284 284 284 284 284 284 284 285 285 285 286 286 286 286 286 286 286 286 286 286 286 286 286 287 287 287 288 288 288 289 289 289 290 290 290 291 291 292 292 292 292 292 292 292 293 293 293 294 295 295
286 286 286 286 287 287 287 286 286 285 285 285 284 284 284 284 284 284 283 283 283 283 283 283 283 283 283 283 283 283 283 283 283 283 283 284 284 284 284 284 284 284 284 285 285 285 285 286 285 285 285 285 285 285 285 285 286 286 286 286 287 287 288 288 288 289 289 289 289 290 290 291 291 292 292 292 292 292 293 293 293 293 294 294 294 295
286 287 287 287 287 286 286 285 285 285 285 284 284 284 284 284 284 283 283 283 283 283 283 282 282 283 283 283 283 283 283 283 283 283 283 283 283 283 283 284 284 284 284 285 285 285 285 285 285 284 284 284 285 285 285 285 285 286 286 286 287 287 287 288 288 288 289 289 289 290 290 291 291 291 291 292 292 293 293 293 293 293 294 294 294 295
287 288 288 287 286 286 285 285 285 284 284 284 284 284 284 283 283 283 283 283 282 282 282 283 283 283 283 283 283 283 283 283 283 283 283 283 283 283 284 284 284 284 284 284 284 284 283 284 284 284 284 284 284 284 285 285 285 285 286 286 286 287 287 287 288 288 288 289 289 290 291 291 291 291 291 291 292 293 293 293 293 293 293 294 294 294
288 288 287 286 286 285 285 285 284 284 284 284 284 284 283 283 283 282 282 282 282 282 282 283 283 283 283 283 283 283 283 283 283 284 284 284 284 284 284 284 284 284 284 283 283 283 283 283 283 283 283 283 284 284 284 284 285 285 285 286 286 287 287 288 288 288 288 289 290 291 291 291 291 291 291 291 292 292 292 293 293 293 293 293 293 293
287 287 287 286 285 285 284 284 284 284 284 283 283 283 283 282 282 282 282 282 282 282 283 283 283 283 283 283 283 283 284 284 284 284 284 284 284 284 284 284 283 283 283 283 282 282 282 282 282 283 283 283 283 283 284 284 285 285 286 286 287 287 287 288 288 289 290 290 291 291 290 290 291 291 291 291 291 291 292 292 292 292 292 292 293 293
287 286 286 285 285 284 284 284 284 283 283 283 283 282 282 282 282 282 282 282 283 283 283 283 283 283 283 283 284 284 284 284 284 284 284 284 284 283 283 283 283 283 282 282 282 282 282 282 282 282 283 283 283 283 284 284 285 285 286 286 287 287 288 289 289 290 290 290 290 290 290 290 290 290 291 291 291 291 291 292 292 292 292 292 293 293
286 285 284 284 284 284 284 283 283 283 283 282 282 282 282 282 282 282 283 283 283 283 284 284 284 284 284 284 284 284 284 284 284 283 283 283 283 283 283 283 282 282 282 282 282 282 282 282 282 282 283 283 283 284 284 285 285 286 286 287 288 288 289 290 290 289 289 289 289 289 289 290 290 290 290 291 291 291 291 291 291 292 292 292 292 293
284 284 284 284 284 284 283 283 282 282 282 282 282 282 282 282 283 283 283 283 283 284 284 284 284 284 284 284 284 283 283 283 283 283 283 283 283 283 282 282 282 282 282 282 282 282 282 282 282 282 283 283 284 284 285 285 286 286 287 288 289 289 289 289 288 289 289 289 289 289 289 290 290 290 290 290 290 290 291 291 291 292 292 292 292 292
284 284 284 283 283 283 283 282 282 282 282 282 282 282 283 283 283 283 284 284 284 284 284 284 284 284 284 284 283 283 282 282 282 283 283 283 283 282 282 282 282 282 282 282 282 282 282 282 282 282 283 283 284 284 285 286 287 287 288 288 287 287 287 287 288 288 288 288 289 289 289 289 290 290 290 290 290 291 291 291 291 292 292 292 292 292
283 283 283 283 283 282 282 282 282 282 282 282 283 283 283 283 284 284 284 284 284 284 283 283 283 283 283 282 282 282 282 282 283 283 283 283 282 282 282 282 282 282 282 282 282 282 282 282 282 282 283 283 284 285 286 286 287 286 286 286 286 286 286 287 287 287 288 288 288 289 289 289 290 290 290 291 291 291 291 291 292 292 292 292 292 292
283 283 283 282 282 282 282 282 282 282 283 283 283 283 284 284 284 284 283 283 283 282 282 282 282 282 282 282 282 282 283 283 283 283 282 282 282 281 281 281 281 281 281 281 282 282 282 282 282 282 283 284 285 286 286 285 285 285 285 285 285 286 286 286 287 287 287 287 288 288 289 289 289 290 290 291 291 291 291 291 291 292 292 292 292 292
283 282 282 282 282 282 282 283 283 283 283 284 284 284 284 284 283 283 282 282 282 282 282 282 282 282 282 282 282 283 283 283 282 282 282 282 281 281 281 281 281 281 281 281 281 282 282 282 283 283 284 285 285 284 284 284 284 284 284 285 285 286 286 286 286 287 287 287 288 288 288 289 289 290 290 290 291 291 291 291 291 291 291 291 291 291
282 282 282 282 283 283 283 283 284 284 284 284 284 284 283 283 282 282 282 282 282 282 282 282 282 282 282 283 283 283 283 282 281 281 281 281 281 281 281 281 281 281 281 281 282 282 282 283 284 284 284 284 283 283 283 283 284 284 285 285 285 285 286 286 286 286 287 287 287 288 288 289 289 289 290 290 291 291 291 291 291 291 291 291 291 291
283 283 283 283 284 284 284 285 285 285 284 284 283 283 282 282 282 282 282 282 282 283 282 282 283 283 283 283 283 282 282 281 281 281 281 281 281 281 281 281 281 281 282 282 282 283 283 283 283 283 283 283 283 283 283 283 284 284 284 285 285 285 286 286 286 287 287 287 288 288 288 288 289 289 290 291 291 291 291 290 290 290 290 291 291 291
283 284 284 284 285 285 285 285 284 284 283 283 283 283 282 282 282 282 283 282 282 282 282 283 283 283 283 282 282 281 281 281 281 281 281 281 281 281 281 281 281 282 282 282 283 283 283 283 283 282 282 282 282 283 283 283 284 284 284 285 285 285 286 286 286 287 287 287 288 288 288 289 289 290 290 290 290 290 290 290 290 290 290 290 290 291
284 285 285 285 285 284 284 284 283 283 283 283 283 283 282 282 282 282 282 282 282 282 283 283 283 282 282 282 281 281 281 281 281 281 281 281 281 281 281 281 282 282 282 283 283 283 283 282 282 282 282 282 282 283 283 283 284 284 285 285 285 285 286 286 287 287 287 287 288 288 288 289 289 290 290 290 289 289 289 289 289 289 289 290 290 290
285 285 284 284 284 283 283 282 282 282 282 282 282 282 282 282 282 282 282 282 282 282 282 282 282 282 281 281 281 281 281 281 281 281 281 281 281 281 282 282 282 282 283 282 282 282 282 282 282 282 282 282 283 283 283 283 284 284 285 285 285 286 286 286 287 287 287 287 287 288 288 288 289 289 289 289 289 289 289 289 289 289 289 290 290 290
284 283 283 282 282 282 282 282 282 282 282 282 282 282 282 282 282 282 282 282 282 282 282 282 282 282 281 281 281 281 281 281 281 281 281 281 282 282 282 282 282 282 282 282 282 282 282 282 282 282 283 283 283 283 283 283 284 284 285 285 285 285 286 286 286 286 286 287 287 287 288 288 288 288 288 288 288 289 289 289 289 289 290 290 290 291
282 282 281 281 281 281 281 281 281 281 281 281 282 282 282 282 282 282 282 282 282 282 282 282 282 281 281 281 281 281 281 281 281 281 281 281 282 282 282 282 282 282 282 282 282 282 282 282 282 283 283 283 283 283 283 283 284 284 284 284 284 285 285 285 285 286 286 287 287 287 287 288 288 288 288 289 289 289 289 289 289 290 290 290 290 291
281 281 280 280 280 281 281 281 280 281 281 281 281 282 282 282 282 281 281 281 281 281 281 281 281 281 281 281 281 281 281 281 281 281 281 281 281 281 281 281 281 282 282 282 282 282 282 283 283 283 283 283 283 283 283 283 283 283 283 284 284 284 284 285 285 286 286 286 287 287 287 287 288 288 288 288 288 288 288 288 289 289 289 289 290 290
280 280 280 280 280 280 280 280 280 280 281 281 281 281 281 281 281 281 281 281 281 281 281 281 281 281 281 281 281 281 281 281 281 281 281 281 281 281 281 281 282 282 282 282 282 283 283 283 283 283 283 283 283 283 283 283 283 283 283 284 284 284 284 285 285 285 286 286 287 287 287 287 287 287 287 287 287 287 287 287 288 288 288 289 289 289
280 280 280 280 280 280 280 281 281 281 281 281 281 281 281 281 281 281 281 281 281 281 281 281 281 281 281 281 281 281 281 281 281 281 281 281 281 281 281 282 282 282 282 282 282 282 283 283 283 283 283 283 283 283 283 283 283 283 284 284 284 284 285 285 285 285 285 286 286 286 286 285 285 285 285 285 286 286 286 287 287 287 288 288 289 289
280 280 280 280 280 280 281 281 281 281 281 281 281 281 281 281 281 281 281 281 281 281 281 281 281 281 281 281 281 281 281 281 281 281 281 281 281 281 282 282 282 282 282 282 282 282 283 283 283 283 283 283 283 283 283 283 284 284 284 284 284 284 284 284 284 284 284 284 284 284 284 284 284 284 284 285 285 285 286 286 287 287 288 288 288 289
280 280 280 280 281 281 281 281 281 281 281 281 281 281 281 281 281 281 281 281 281 281 281 281 281 281 281 281 281 281 281 281 281 281 281 281 281 282 282 282 282 282 282 282 282 282 282 282 283 283 283 283 283 283 283 283 284 284 284 284 284 284 283 283 283 283 283 283 283 283 283 283 283 283 284 284 284 285 285 286 286 287 287 288 288 289
280 280 281 281 281 281 281 281 281 281 281 281 281 281 281 281 280 280 280 280 280 280 280 280 280 281 281 281 281 281 281 281 281 281 281 281 281 281 282 282 282 282 282 282 282 282 282 282 283 283 283 283 283 283 283 283 283 283 283 283 283 283 283 282 282 282 282 282 282 282 282 283 283 283 283 284 284 284 285 286 286 287 287 288 288 289
280 281 281 281 281 281 281 281 281 281 281 281 280 280 280 280 280 280 280 280 280 280 280 280 280 281 281 281 281 281 281 281 281 281 281 281 281 281 281 281 282 282 282 282 282 282 282 283 283 283 283 283 283 283 283 283 283 282 282 282 282 282 282 282 282 282 282 282 282 282 282 283 283 283 283 284 284 285 285 286 286 287 287 288 289 289
281 281 281 281 281 281 281 281 281 281 280 280 280 280 280 280 280 280 280 280 280 280 280 280 280 280 280 280 280 280 281 281 281 281 281 281 281 281 281 281 281 282 282 282 282 282 282 283 283 283 283 283 283 283 283 282 282 282 282 282 282 282 282 282 282 282 282 282 282 282 283 283 283 283 284 284 284 285 285 286 287 287 288 288 289 289
281 281 281 281 281 281 281 280 280 280 280 280 280 280 280 280 280 280 280 280 280 280 280 280 280 280 280 280 280 280 280 280 280 280 281 281 281 281 281 281 281 282 282 282 282 282 282 283 283 283 283 282 282 282 282 282 281 281 281 281 281 281 281 282 282 282 282 282 283 283 283 283 284 284 284 284 285 285 285 286 286 287 288 288 289 290
281 281 281 281 281 280 280 280 280 280 280 280 280 280 280 280 280 280 280 280 280 280 280 280 280 280 280 280 280 280 280 280 281 281 281 281 281 281 281 281 281 282 282 282 282 282 283 283 283 282 282 282 282 281 281 281 281 281 281 281 281 281 282 282 282 282 283 283 283 283 283 284 284 284 284 285 285 286 286 287 287 288 288 289 289 290
281 281 281 280 280 280 280 280 280 280 280 280 280 280 280 280 280 280 280 280 280 280 280 280 280 280 280 280 280 280 280 280 281 281 281 281 281 281 281 281 281 282 282 282 282 283 283 283 282 282 282 281 281 281 281 281 281 281 281 281 281 282 282 282 282 282 283 283 283 283 284 284 284 285 285 286 286 287 287 288 288 288 289 289 289 290
281 280 280 280 280 280 280 280 280 280 280 280 280 280 280 280 280 280 280 280 280 280 280 280 280 280 280 280 280 280 280 281 281 281 281 281 281 281 281 281 282 282 282 282 282 283 282 282 281 281 281 280 280 280 280 280 280 281 281 281 281 282 282 282 282 283 283 283 284 284 284 285 285 285 286 286 287 287 288 288 289 289 289 289 289 290
280 280 280 280 280 280 280 280 280 280 280 280 280 280 280 280 280 280 280 280 280 280 280 280 280 280 280 280 280 280 281 281 281 281 281 281 281 281 281 282 282 282 282 282 282 282 281 281 280 280 280 280 280 280 280 280 280 280 281 281 281 281 282 283 283 283 284 284 284 284 284 285 285 286 286 287 288 288 289 289 290 290 290 290 290 291
280 280 279 279 279 280 280 280 280 280 280 280 280 280 280 280 280 280 280 280 280 280 280 280 280 280 280 280 281 281 281 281 281 281 281 281 281 282 282 282 282 282 282 282 281 281 280 280 280 279 279 279 279 279 279 280 280 280 280 281 281 282 282 283 284 284 284 284 284 284 285 285 286 286 287 288 288 289 290 291 291 292 292 292 292 292
279 279 279 279 279 279 280 279 280 280 280 280 280 280 280 280 280 280 280 280 280 280 280 280 280 280 280 281 281 281 281 281 281 281 281 282 282 282 282 281 281 281 281 281 280 280 279 279 279 279 279 279 279 279 279 279 280 280 281 281 282 282 283 283 283 284 284 284 284 285 286 286 287 287 288 288 289 290 291 292 292 293 293 293 293 294
279 279 279 279 279 279 279 279 279 279 279 279 280 280 280 280 280 280 280 280 280 280 280 280 280 280 281 281 281 281 281 281 281 281 282 281 281 281 281 281 280 280 280 280 279 279 279 279 279 279 279 279 279 279 279 280 280 280 281 282 282 282 283 283 283 284 284 284 285 286 286 287 288 288 288 289 290 292 292 293 293 293 293 293 293 294
279 279 279 279 279 279 279 279 279 279 279 279 280 280 280 280 280 280 280 280 280 280 280 280 280 280 281 281 281 281 281 281 281 281 281 281 281 280 280 280 280 280 279 279 279 279 278 278 278 279 279 279 279 279 280 280 280 281 281 282 282 283 283 283 284 284 284 285 286 287 288 288 288 289 289 290 291 292 293 293 293 293 293 293 293 294
279 279 279 279 279 279 279 279 279 279 279 280 280 280 280 280 280 280 280 280 280 280 280 280 280 280 280 280 281 281 281 281 281 281 281 281 280 280 280 280 280 279 279 279 279 279 279 279 279 279 279 279 279 280 280 280 281 281 281 282 283 283 284 284 284 285 285 286 287 287 288 289 289 290 290 291 292 292 293 293 293 293 293 293 293 294
279 279 279 279 279 279 279 279 279 279 279 279 280 280 280 280 280 280 280 280 280 280 280 280 280 280 280 280 281 281 281 281 281 281 281 280 280 280 280 280 279 279 279 279 279 279 280 280 280 280 279 279 279 280 280 281 281 282 282 283 283 283 284 284 285 286 286 287 288 289 289 289 290 290 291 291 292 293 293 293 293 293 293 293 293 294
279 279 279 279 279 279 279 279 279 279 279 279 280 280 280 280 280 280 280 280 280 280 280 280 280 280 281 281 281 281 281 281 281 281 280 280 280 280 280 279 279 279 279 279 279 280 280 281 281 281 281 280 280 280 280 281 282 283 283 283 284 284 284 285 285 286 287 288 289 290 290 290 290 290 291 291 292 292 293 293 293 293 293 293 293 293
278 278 279 279 279 279 279 279 279 279 279 280 280 280 280 280 280 280 280 280 280 280 280 280 280 280 281 281 281 281 281 281 281 280 280 280 280 279 279 279 279 279 279 279 280 280 280 281 281 282 282 282 282 282 282 283 283 283 284 284 285 285 285 285 286 287 287 288 289 290 290 290 290 291 291 291 292 292 293 293 293 293 293 293 293 293
278 278 278 279 279 279 279 279 279 279 279 280 280 280 280 280 280 280 280 280 280 280 280 280 280 281 281 281 281 281 281 281 280 280 280 279 279 279 279 279 279 279 279 279 280 280 280 281 281 282 282 283 284 284 284 284 284 284 285 286 286 286 286 286 286 287 288 289 290 290 290 290 290 291 291 291 291 292 292 293 293 293 293 293 293 293
Wind_Speed
29 30 30 30 31 32 33 32 32 32 33 32 31 30 30 30 30 30 31 31 31 31 30 30 30 30 30 31 33 35 36 36 34 33 33 34 36 37 39 41 41 41 41 40 38 38 37 37 37 37 38 38 39 40 41 41 40 40 40 40 39 39 39 39 39 39 38 37 36 35 35 35 35 35 36 36 36 35 34 32 30 30 31 32 33 34
29 30 30 30 30 32 33 33 31 31 32 32 32 31 30 31 31 30 30 29 29 28 28 27 27 28 30 32 34 35 35 33 32 32 34 36 37 39 40 41 40 39 39 39 38 38 38 38 38 39 39 40 40 40 40 40 39 39 39 39 39 39 39 39 39 38 37 37 36 35 35 35 35 36 36 36 36 34 33 31 30 30 31 32 34 34
29 29 30 29 29 30 32 33 32 31 31 32 31 31 30 30 30 29 28 27 26 26 26 26 27 29 32 34 35 35 33 33 33 34 35 37 38 39 40 39 38 38 38 38 38 39 39 39 40 40 40 40 39 39 39 39 39 39 39 39 39 39 39 38 38 37 37 36 35 35 35 35 35 35 35 36 35 34 32 30 30 30 31 33 33 33
26 27 29 30 30 31 31 32 32 31 30 30 30 30 29 28 27 26 25 25 25 26 27 28 30 32 33 34 34 34 33 33 34 35 36 37 38 38 38 38 38 38 38 39 39 40 40 40 40 40 39 39 38 38 38 38 38 39 39 39 39 39 38 38 37 37 36 36 35 35 34 34 33 34 34 34 34 33 32 31 31 32 33 33 32 31
25 26 29 30 30 30 31 31 31 31 30 29 28 27 25 24 24 24 24 25 26 28 30 31 33 33 33 33 32 32 32 33 34 35 36 37 37 38 38 38 38 39 39 39 40 40 39 39 39 39 38 38 38 38 37 38 38 38 39 39 39 38 38 38 37 36 36 35 35 35 34 34 33 33 33 33 32 33 33 32 33 33 33 33 32 32
26 27 29 30 30 30 30 30 30 29 28 26 24 23 22 22 23 24 25 27 29 30 31 33 33 33 32 31 30 30 31 33 34 36 36 37 37 37 38 38 38 38 39 39 39 39 39 39 39 38 38 38 37 37 37 38 38 38 39 39 38 38 38 37 36 36 35 35 35 35 35 35 34 34 33 33 33 33 34 34 34 34 34 33 33 32
27 29 29 30 30 31 30 30 29 27 24 21 20 21 21 23 24 26 28 29 30 30 31 32 33 32 31 30 30 31 32 33 35 35 36 36 36 36 36 36 36 37 38 38 38 39 39 39 39 38 38 37 37 37 37 38 38 39 39 39 39 38 37 37 36 36 35 35 35 35 35 35 35 35 34 34 34 34 35 35 35 35 34 33 33 33
27 29 29 30 30 31 30 27 24 21 19 18 19 21 23 26 27 29 30 30 30 30 32 33 33 32 31 31 31 32 32 33 33 34 34 34 34 34 34 35 36 36 37 38 38 39 39 38 38 37 37 37 37 37 38 38 39 40 40 40 39 38 38 37 36 36 35 35 35 35 35 35 35 35 35 35 35 35 35 35 35 35 34 33 33 33
26 28 30 30 29 27 25 22 18 16 17 19 21 23 25 28 30 31 32 32 32 32 32 33 33 33 32 32 31 31 31 32 32 33 33 34 34 34 34 35 36 37 37 37 37 37 37 37 37 36 36 36 36 37 39 40 41 42 41 41 40 39 38 37 36 35 35 35 35 34 34 34 34 34 34 34 35 35 35 36 36 35 33 32 32 33
26 28 29 30 27 22 17 15 15 17 20 22 24 24 25 27 29 30 32 33 34 34 32 32 32 32 32 32 31 30 31 32 33 34 34 35 35 35 35 35 36 36 36 36 36 35 35 35 35 35 35 36 37 39 40 42 42 42 41 40 39 38 37 36 35 35 34 34 34 34 34 34 34 34 34 34 34 34 35 35 35 33 31 30 31 31
26 28 27 24 19 15 13 15 19 22 24 26 27 27 27 27 28 28 28 30 33 34 33 32 31 31 30 30 30 30 31 32 34 34 34 34 34 34 34 34 34 34 33 33 32 32 32 32 33 34 35 36 38 40 41 42 42 41 40 39 37 37 36 35 35 34 34 34 33 33 33 34 34 34 34 33 33 33 33 33 32 31 29 28 29 29
25 24 20 15 12 13 16 21 24 26 26 26 25 26 28 29 29 28 26 27 30 32 33 32 31 30 29 29 30 30 31 32 33 33 33 31 30 30 29 29 29 29 28 28 28 29 30 30 32 33 35 37 39 40 41 41 40 39 38 37 36 36 35 35 34 34 33 33 33 33 34 34 34 34 33 32 31 31 31 31 31 30 28 27 28 28
22 18 14 12 14 17 21 23 25 25 25 24 22 21 24 28 30 29 28 28 30 31 31 31 31 30 30 29 29 30 31 32 32 32 31 29 27 26 25 25 25 25 25 26 27 28 29 30 32 34 35 37 38 39 39 39 38 38 37 36 36 35 35 34 34 33 33 33 34 34 35 35 35 34 33 32 32 31 31 30 30 29 29 28 28 29
21 18 15 15 17 19 21 22 22 21 22 23 23 24 27 29 30 29 29 29 30 31 30 30 30 30 30 29 28 29 29 29 29 29 28 26 24 23 23 23 24 26 27 28 29 30 31 31 32 33 34 35 36 36 37 37 37 36 36 35 35 35 34 34 34 34 34 34 35 36 36 35 35 34 34 33 33 32 31 31 30 30 30 30 30 30
20 17 12 10 13 17 19 20 20 21 23 25 27 28 30 30 29 28 27 26 28 30 30 29 29 30 29 28 27 26 26 25 25 24 24 24 24 24 24 25 27 29 30 31 31 32 32 32 32 32 33 34 34 35 35 35 36 36 35 35 35 35 35 35 35 35 34 35 35 36 36 36 35 35 35 34 34 33 32 32 32 32 32 32 31 31
17 13 8 8 11 16 19 20 21 22 25 27 28 28 28 28 28 28 27 26 27 27 25 23 21 22 24 27 26 23 21 20 20 21 23 26 28 28 27 27 29 31 31 31 32 32 32 31 31 31 32 32 33 34 35 35 35 35 35 35 35 36 36 36 36 36 35 36 36 37 37 37 36 36 36 35 34 34 34 34 34 34 34 33 33 32
14 13 12 12 14 17 21 23 24 25 27 28 28 28 27 27 27 27 26 26 24 22 19 14 10 9 12 22 25 22 21 21 22 24 27 30 32 31 29 28 29 30 31 32 32 32 31 30 30 30 31 32 33 34 34 35 35 36 36 36 36 36 36 36 36 36 37 37 38 38 37 37 37 37 36 36 36 35 35 35 35 35 35 34 33 33
15 16 17 16 17 20 24 25 26 27 28 28 28 29 29 28 28 27 26 24 21 19 17 14 10 7 7 8 17 26 26 26 27 29 29 30 31 31 29 28 28 30 31 31 31 30 29 29 30 31 32 33 34 35 36 36 37 37 37 36 36 35 35 36 37 37 38 38 38 38 37 37 37 37 37 36 36 36 36 36 36 35 35 34 34 33
19 20 20 20 21 24 26 26 26 27 27 27 28 28 27 27 26 25 23 21 20 19 17 13 11 10 11 14 22 30 31 29 29 28 27 27 29 30 29 27 28 29 30 30 29 29 29 29 31 32 34 35 36 37 36 36 35 35 35 35 36 36 37 37 37 38 38 38 38 38 37 37 37 37 36 36 36 36 36 36 35 35 35 34 34 33
22 23 23 24 25 25 26 26 27 27 27 28 28 27 24 24 22 19 18 17 19 21 22 19 17 18 21 25 30 33 32 30 27 25 24 25 27 29 29 27 27 28 28 29 29 29 29 31 32 34 35 35 35 34 33 32 32 34 35 37 37 38 38 38 38 38 38 38 38 37 37 37 36 36 36 36 36 36 35 35 34 33 34 33 32 32
24 25 26 26 26 25 25 27 28 28 28 28 26 23 21 19 18 17 18 21 23 25 25 22 22 24 27 28 31 32 31 27 24 22 23 24 26 28 28 27 26 26 28 29 30 30 31 31 32 32 31 30 29 29 31 33 35 37 38 38 38 38 38 38 38 38 37 37 37 37 37 36 36 35 35 35 35 34 34 33 32 32 32 31 31 31
25 27 28 28 27 26 26 27 28 27 26 25 22 19 19 20 21 23 26 27 27 26 24 24 26 29 31 31 32 31 28 25 23 23 22 15 19 26 27 26 25 25 27 28 28 28 29 29 28 27 27 27 29 32 34 37 38 39 39 39 39 38 38 38 37 37 37 36 36 36 36 36 35 35 35 35 34 33 32 31 31 30 30 30 30 30
27 28 29 29 28 27 26 26 25 24 23 22 22 24 25 26 27 27 28 28 27 27 28 28 30 31 31 30 29 28 26 24 24 24 21 12 14 22 26 26 25 25 26 28 28 28 27 25 24 24 26 29 32 35 37 38 38 39 39 39 38 38 38 37 37 36 36 36 36 36 36 36 36 35 35 35 34 32 31 30 30 30 30 31 31 31
28 28 28 27 26 25 25 25 24 25 26 27 29 29 30 30 29 29 28 28 28 28 30 30 29 28 27 27 26 26 26 26 25 24 20 12 14 21 27 26 25 26 27 29 28 27 26 25 26 27 29 31 34 36 37 38 38 38 38 38 38 38 37 37 36 36 36 36 36 36 37 37 37 37 36 35 33 32 31 31 31 32 32 32 32 33
28 27 26 26 27 27 28 29 30 31 32 32 32 31 31 31 30 29 28 27 26 26 25 24 20 19 21 23 24 26 28 26 24 22 20 15 17 23 27 26 25 25 27 28 28 27 27 28 28 29 29 32 34 35 36 37 38 38 38 38 37 37 36 36 36 36 36 36 36 37 37 38 38 37 36 34 33 33 33 33 33 33 33 33 33 34
27 27 28 29 30 31 32 33 33 34 33 33 32 31 31 30 29 28 26 25 24 23 20 16 12 13 17 21 22 24 26 25 23 21 21 17 17 21 25 25 24 23 24 26 27 27 27 29 30 30 30 31 33 35 35 36 37 37 37 37 37 36 36 36 35 36 36 36 37 38 38 38 37 36 35 34 34 34 35 35 35 35 35 34 34 34
25 26 27 29 31 32 32 33 33 33 33 32 32 31 31 29 27 24 22 22 22 20 17 11 10 11 13 15 18 21 25 25 23 22 22 21 17 16 21 23 22 22 23 26 28 28 28 29 30 30 30 30 32 33 33 34 34 35 35 35 35 35 35 35 35 35 36 37 37 38 38 37 36 36 36 35 36 36 36 36 36 36 36 35 34 33
24 25 27 29 31 31 32 32 32 32 32 31 31 31 30 27 24 21 20 22 23 21 16 12 10 10 9 8 15 23 26 25 23 22 21 20 14 12 19 22 23 23 24 26 29 30 29 28 28 28 28 29 30 30 31 31 31 31 32 33 33 34 35 35 36 36 36 37 37 37 37 37 37 37 36 37 37 36 36 36 36 36 36 34 32 31
25 27 28 29 30 31 31 31 31 31 30 30 30 29 28 25 22 21 22 24 24 20 16 13 11 10 9 10 17 23 24 24 23 21 20 17 13 14 21 23 24 24 24 23 24 26 26 25 25 24 25 26 26 26 27 27 27 28 30 32 33 34 35 35 36 36 36 36 36 37 37 37 36 36 36 36 36 36 36 36 36 35 33 31 29 29
28 29 29 30 29 29 29 29 29 29 29 28 28 28 26 24 23 23 24 25 23 20 17 15 13 12 11 12 13 14 15 21 22 21 20 15 12 15 22 23 24 24 23 16 13 13 16 19 22 22 22 23 24 24 25 26 26 27 29 31 32 32 32 33 33 34 34 35 35 35 35 35 35 35 35 35 36 36 36 36 35 33 31 29 27 26
29 29 29 29 29 29 28 28 28 27 27 27 26 26 24 24 23 23 24 23 21 20 19 18 17 17 15 10 7 5 6 18 23 23 21 17 15 17 21 21 22 23 22 16 9 5 8 11 18 23 23 24 25 26 27 28 28 28 29 30 29 29 29 30 30 31 32 32 32 32 33 34 34 35 36 36 36 36 36 36 34 32 30 28 26 25
29 28 28 28 28 28 27 27 26 26 26 25 25 24 24 23 23 23 23 22 21 21 21 21 20 20 19 12 9 8 9 20 26 25 23 20 19 21 22 20 20 22 22 21 14 8 7 5 13 23 26 26 27 28 28 28 27 27 28 27 26 26 27 28 28 29 29 30 31 32 33 35 35 36 36 36 36 36 35 35 34 32 30 27 26 25
28 28 28 28 28 27 26 26 25 25 25 25 24 24 24 23 23 22 22 22 22 22 21 21 21 20 20 18 16 17 20 25 27 26 25 21 19 20 22 21 21 21 22 23 20 16 11 8 13 21 25 27 27 27 26 25 25 24 24 24 23 24 26 26 27 28 30 31 31 32 33 34 34 34 35 34 34 34 34 34 33 32 30 28 26 25
28 28 28 27 26 26 25 25 25 24 24 24 24 24 23 23 23 22 23 22 23 23 23 22 21 20 19 18 17 19 24 26 27 26 25 23 20 19 22 21 21 20 20 18 19 19 16 15 14 14 16 24 27 26 25 24 23 23 23 23 23 24 26 26 27 29 30 30 30 29 30 30 31 31 32 32 32 31 31 31 31 31 31 29 27 25
27 27 26 25 25 24 24 24 24 24 24 24 24 24 24 24 23 23 24 24 24 24 24 23 23 23 22 19 16 17 23 27 28 27 26 24 22 21 21 21 21 20 17 15 14 12 9 13 15 14 11 16 22 26 26 25 24 25 25 25 25 25 26 27 27 28 28 28 28 28 28 29 29 29 29 30 30 30 30 30 30 31 31 31 29 27
25 25 25 24 24 24 24 24 24 24 24 24 24 24 24 24 25 25 25 26 26 26 26 25 25 26 25 24 22 22 25 29 30 30 28 27 25 22 20 21 23 22 18 15 12 9 7 9 13 16 15 11 13 20 25 27 27 26 26 25 25 25 26 26 27 27 27 27 27 27 28 28 28 29 29 30 30 30 31 31 31 31 32 32 32 31
23 23 23 23 23 23 23 24 24 24 24 24 24 25 25 26 26 26 26 27 27 27 27 27 27 27 27 27 27 28 29 30 31 32 32 31 29 26 23 23 25 25 21 17 15 12 10 9 11 12 12 10 9 11 19 27 29 27 26 25 25 25 26 27 27 27 27 26 26 27 27 28 28 28 29 30 30 30 30 31 31 31 31 32 32 33
21 22 22 23 23 23 23 24 24 24 25 25 25 26 26 27 28 28 27 27 27 28 28 27 27 28 29 29 30 32 33 33 34 35 36 34 33 30 26 24 24 24 22 20 20 17 12 10 10 10 9 9 11 17 23 26 26 26 27 27 27 26 25 26 26 26 25 25 25 26 27 27 28 28 29 29 29 28 28 28 28 27 27 28 29 30
21 21 22 23 24 24 24 24 24 25 25 26 26 26 27 28 28 28 27 26 26 27 27 27 27 28 29 30 32 32 33 33 34 35 35 34 33 31 28 25 24 24 23 23 22 20 15 11 8 8 9 9 13 20 25 24 23 24 26 28 28 26 24 24 24 23 24 24 25 26 26 27 28 27 26 27 26 25 25 24 24 24 24 23 23 25
21 22 23 24 24 24 24 25 25 26 27 27 27 27 27 27 27 27 26 26 26 26 27 27 27 27 28 28 29 30 31 32 32 32 32 32 32 31 29 26 24 23 23 22 21 20 18 14 12 11 11 10 11 13 17 21 22 23 24 20 19 22 25 24 24 24 25 25 25 25 25 26 26 25 24 24 24 24 23 23 23 22 21 20 19 19
22 23 24 25 25 25 25 25 26 27 27 27 27 26 26 26 26 26 26 26 25 25 25 25 25 25 26 26 27 27 28 29 29 29 30 30 31 31 29 26 24 23 22 21 21 20 18 17 16 17 18 15 14 15 16 19 22 24 23 16 16 22 27 26 25 24 24 24 24 24 24 24 24 24 24 24 23 24 24 24 23 22 21 20 19 18
23 23 24 25 25 25 26 26 26 27 27 26 25 25 25 25 25 25 25 26 25 25 25 24 24 24 24 24 24 24 25 25 26 27 28 28 28 28 27 25 24 22 22 21 21 20 20 20 19 18 17 17 15 12 12 19 23 24 21 20 21 24 26 26 25 23 22 22 23 24 23 23 23 23 24 24 24 24 24 23 22 21 20 19 19 18
23 24 25 25 25 26 26 26 26 26 26 25 25 25 25 25 25 25 25 25 25 25 26 25 24 23 22 22 23 24 24 24 24 25 25 25 24 23 22 22 23 23 23 21 20 21 22 21 20 19 19 18 16 13 11 16 21 22 22 22 21 17 9 17 24 25 24 24 24 24 23 22 22 23 24 24 24 24 22 20 18 17 16 17 17 18
23 24 25 25 25 25 26 25 25 25 25 25 25 25 26 25 25 25 24 24 24 24 24 23 22 21 20 20 21 23 23 22 22 22 21 19 18 18 19 21 22 23 22 21 19 18 19 19 19 19 19 18 16 15 13 15 17 19 21 22 20 16 11 16 22 26 25 25 25 24 24 23 23 23 23 23 23 21 20 19 17 15 14 13 13 14
24 24 25 25 25 25 25 25 25 25 25 25 25 25 25 25 25 24 24 24 24 24 23 23 21 18 16 17 19 21 22 21 20 19 17 17 17 18 19 20 21 21 21 20 19 18 17 16 17 19 19 18 16 15 15 15 16 18 21 22 21 20 21 23 24 23 22 23 24 25 26 26 24 22 20 19 19 18 18 17 16 15 15 13 12 11
23 24 24 24 24 24 24 25 25 25 25 25 25 25 25 25 25 24 24 23 23 22 23 22 19 15 12 14 17 19 19 19 19 18 17 17 19 20 20 20 20 20 20 20 21 20 19 18 18 18 18 16 16 17 18 17 16 16 19 21 22 21 21 21 22 21 21 21 22 24 26 26 23 19 15 15 16 17 17 17 17 17 17 17 16 14
23 24 24 24 24 24 25 25 25 25 25 25 25 25 25 25 24 24 23 23 22 22 22 22 19 16 14 15 16 16 15 16 17 18 19 19 20 20 20 20 20 20 20 20 20 21 21 20 20 19 16 12 10 11 15 17 16 15 17 19 20 19 18 19 20 22 21 20 21 22 24 22 19 15 14 15 15 15 16 18 19 20 20 19 19 18
23 24 24 24 24 24 24 25 24 24 24 24 25 26 25 24 23 23 22 23 22 21 21 19 18 16 15 16 17 16 15 15 16 17 19 19 19 19 19 20 21 22 21 20 19 19 19 19 18 18 18 14 9 8 12 15 17 17 17 18 18 16 16 17 20 21 21 21 21 22 22 19 15 13 13 13 12 12 15 18 20 22 23 22 21 20
23 23 23 24 23 23 24 24 24 24 24 24 25 26 26 25 24 23 22 22 21 20 19 17 16 15 14 15 16 17 17 16 16 17 18 18 19 19 19 20 21 21 21 21 20 19 18 17 15 13 14 16 15 12 13 15 17 19 18 17 16 15 14 16 18 20 20 20 21 22 21 18 17 16 14 10 7 8 13 17 21 23 24 24 23 22
23 23 23 23 23 23 23 24 24 24 24 24 25 25 26 26 25 23 22 21 20 19 18 17 16 14 13 14 15 16 16 15 15 16 17 18 18 18 18 19 19 19 19 18 17 17 17 16 14 11 10 11 13 14 14 15 17 18 17 16 15 14 14 15 17 19 19 20 20 21 21 20 19 18 16 10 6 6 10 15 19 22 24 26 25 25
23 23 23 23 23 23 23 24 24 24 24 24 24 24 24 24 24 23 22 20 19 18 18 17 16 14 13 14 15 16 16 15 14 15 16 17 18 17 17 17 17 16 13 10 10 10 10 8 8 8 8 9 10 11 12 14 16 15 14 14 15 15 14 14 16 18 20 19 19 19 20 20 19 18 16 12 8 6 7 10 15 21 25 27 27 27
Wind_Direction
297 299 300 301 301 300 299 299 299 299 299 299 300 300 300 300 300 299 299 299 299 298 296 295 293 292 291 291 291 293 294 294 293 290 288 289 292 294 296 296 295 294 291 289 287 286 286 287 288 289 290 290 290 290 290 289 289 289 289 289 289 289 288 287 285 284 283 282 281 281 280 279 277 276 275 276 277 276 275 275 275 276 277 276 276 275
298 298 299 300 300 300 299 299 299 298 298 299 299 300 300 300 301 301 301 300 300 298 297 296 295 294 293 293 294 295 294 293 290 288 289 290 292 294 295 294 293 291 289 288 288 288 289 290 290 291 291 290 290 290 289 289 289 289 289 289 289 289 287 286 285 283 282 282 281 280 280 279 278 277 277 277 277 276 275 275 275 275 275 273 272 271
299 299 299 300 300 299 298 299 299 297 297 297 298 299 300 300 301 301 301 301 300 299 297 296 296 295 295 295 295 295 293 291 289 289 290 292 293 294 294 293 292 291 290 290 290 291 291 291 291 290 290 289 289 289 289 289 289 290 290 290 289 288 287 285 284 283 282 281 280 279 279 279 278 278 278 278 277 275 274 275 275 275 273 271 270 270
298 298 299 301 300 298 296 297 297 297 297 297 297 298 299 300 300 300 300 300 299 299 298 298 297 297 296 296 295 294 292 291 291 292 293 294 294 295 294 294 293 292 291 291 291 290 290 290 289 289 289 288 288 288 288 289 289 290 290 290 289 288 286 285 284 282 281 280 280 279 280 279 279 279 278 278 277 276 275 275 275 274 272 271 271 271
297 298 299 300 299 297 296 296 296 297 297 296 296 297 298 298 298 298 298 299 300 301 301 301 300 299 297 296 294 293 293 293 294 295 295 296 296 295 295 294 293 293 292 291 290 289 289 288 288 288 288 287 287 288 288 289 289 290 290 289 289 288 287 285 284 283 282 281 281 281 280 280 279 278 278 278 278 277 276 276 275 274 272 272 271 272
297 297 297 297 296 295 295 295 295 296 296 296 296 296 295 295 296 297 299 302 303 304 303 303 301 299 297 296 295 295 295 296 297 297 297 296 295 295 294 293 292 292 291 290 289 289 288 288 288 287 287 287 287 287 288 288 289 289 289 289 289 288 287 286 285 284 284 284 283 282 282 280 279 279 278 278 278 277 275 274 273 272 272 271 271 271
298 297 296 294 293 292 293 293 294 294 295 296 296 295 295 296 298 300 302 305 306 306 305 304 302 300 299 297 297 298 298 299 298 298 296 295 294 293 292 292 291 291 291 290 290 289 288 288 287 287 286 286 286 287 287 288 289 289 290 290 289 288 288 287 286 286 286 285 285 284 283 281 279 278 277 277 276 275 273 272 271 271 271 270 270 269
297 296 295 293 292 292 291 291 291 292 294 295 296 298 299 301 302 303 305 306 306 306 306 305 303 301 299 299 299 299 299 298 298 296 295 294 292 291 291 291 291 291 291 290 290 289 288 287 287 286 286 285 285 286 287 288 289 289 290 290 289 288 287 286 286 285 285 285 284 283 282 281 279 277 275 274 273 272 271 271 270 269 269 268 267 267
294 295 294 291 290 290 291 291 292 294 296 296 297 299 302 304 305 306 306 306 306 306 306 305 303 301 299 299 298 298 297 296 295 294 293 292 291 290 289 289 290 290 290 290 289 288 287 286 286 286 285 285 286 286 287 288 288 289 289 288 288 287 286 285 284 284 283 283 282 282 281 280 278 276 274 273 271 270 270 269 269 268 267 266 266 266
292 292 291 290 287 286 288 292 297 300 301 299 298 298 300 304 307 308 307 306 305 305 305 303 302 300 299 298 297 296 296 294 293 292 291 290 289 288 288 288 289 289 289 289 289 288 287 286 286 286 286 286 286 287 287 287 288 288 287 287 286 285 284 284 283 282 282 282 281 281 280 279 277 276 274 273 272 272 271 271 270 269 268 266 265 266
294 293 289 288 286 287 290 297 302 304 304 303 301 301 301 303 306 307 307 305 305 305 305 302 300 298 298 297 297 296 295 294 293 292 290 288 287 286 286 287 288 288 289 289 288 287 286 286 285 285 285 286 286 286 286 286 286 286 286 286 285 284 284 283 282 282 281 281 280 280 279 278 277 276 275 274 274 274 274 273 271 270 268 266 266 266
295 293 289 287 291 298 301 303 305 306 307 307 306 305 304 305 305 305 304 303 304 304 304 302 299 296 295 295 295 295 295 294 293 291 290 288 287 286 287 288 288 289 289 288 287 286 286 285 285 285 285 285 285 285 285 285 285 285 286 285 285 284 284 283 282 282 281 280 280 279 277 277 277 277 276 275 274 273 272 271 270 269 267 266 267 267
292 288 286 290 298 302 305 306 307 308 308 307 307 306 306 306 306 304 302 300 300 301 301 300 298 295 293 293 293 293 293 292 291 290 289 288 287 288 289 290 290 290 290 289 288 287 286 286 286 286 285 285 284 284 284 284 285 285 285 285 284 284 284 283 282 281 280 279 278 277 277 278 279 279 279 276 273 271 269 269 268 267 267 267 268 270
289 285 286 292 298 302 305 307 307 307 306 305 304 304 303 304 304 303 301 298 298 298 298 296 295 294 294 293 292 292 291 289 289 289 288 287 287 290 292 292 291 291 291 290 289 288 288 288 287 286 285 284 283 282 282 283 284 284 285 285 284 284 283 282 281 279 278 277 277 278 280 282 283 283 281 278 274 271 269 268 268 268 268 269 270 271
288 288 292 297 302 305 306 307 306 305 304 304 303 303 303 302 302 301 300 298 298 298 297 295 293 293 294 294 294 292 290 288 288 289 289 288 290 292 294 293 292 292 291 290 289 289 289 288 287 285 283 282 281 280 281 283 283 284 284 284 284 283 281 280 278 276 276 276 278 281 284 285 286 285 283 281 277 275 273 271 271 272 272 273 273 274
295 301 306 308 308 307 306 306 305 303 303 303 303 302 302 301 300 299 298 297 297 297 296 295 294 294 295 296 297 296 294 292 291 292 293 293 293 295 296 294 293 292 291 290 289 289 289 288 286 283 282 281 281 281 282 282 283 283 283 283 283 282 280 279 278 277 278 279 282 284 285 286 286 284 283 281 279 277 276 275 275 275 276 276 276 275
311 315 312 309 307 306 305 305 303 302 303 302 302 300 299 297 297 296 295 294 294 294 294 295 294 294 298 301 301 301 302 301 299 297 295 294 294 295 295 294 292 291 290 289 289 288 288 286 284 283 282 282 282 282 282 283 283 283 283 282 282 282 281 281 282 282 283 283 284 284 284 284 283 282 281 280 279 278 277 277 277 276 276 276 276 274
316 312 309 306 304 304 305 304 303 303 302 302 301 299 297 295 293 292 292 291 291 291 293 295 295 294 299 301 302 303 305 304 301 298 295 292 293 294 296 294 292 290 289 288 288 287 286 284 283 284 284 283 283 283 283 283 284 284 283 283 283 284 284 285 285 285 285 285 284 283 283 282 281 280 279 278 277 277 276 276 276 275 275 274 272 271
309 307 306 304 304 303 303 302 302 302 301 300 299 298 295 293 291 290 289 290 291 293 296 296 296 296 297 297 299 301 303 302 298 295 292 291 293 295 296 295 292 289 287 286 286 286 285 283 282 283 283 283 283 283 283 283 284 285 285 286 287 287 287 287 286 286 285 285 284 283 282 281 280 279 278 277 276 275 274 274 274 273 272 271 270 268
303 302 301 302 302 302 300 299 299 299 297 296 294 292 290 291 292 292 292 294 296 298 297 297 296 296 296 296 297 298 300 299 296 293 292 292 294 295 296 294 291 288 286 286 286 285 283 281 281 281 282 282 281 281 282 283 285 287 288 288 288 288 288 287 287 286 286 285 284 283 282 281 279 278 277 276 275 274 274 273 272 271 270 269 269 268
299 298 298 299 298 298 296 296 295 294 293 292 290 289 290 295 298 301 302 301 300 298 297 295 294 294 295 294 294 295 296 296 295 294 294 294 293 293 293 292 289 286 285 285 285 284 281 280 279 279 279 280 281 283 286 287 289 289 289 289 288 288 287 287 286 286 285 285 284 283 282 281 280 279 278 277 276 275 274 272 270 269 268 268 268 268
294 295 296 296 294 292 290 290 290 291 291 291 292 295 300 305 305 304 302 300 299 297 295 293 292 292 292 290 289 290 292 294 294 295 295 292 289 290 292 291 289 286 285 285 285 284 281 279 277 276 278 282 285 287 288 288 289 289 288 288 287 287 287 286 286 286 285 285 285 285 284 284 282 281 280 278 277 275 273 270 269 267 267 267 268 268
291 292 293 293 291 289 288 287 289 292 296 299 301 303 304 303 302 300 299 298 296 294 293 292 290 289 287 285 285 288 291 293 293 292 291 286 286 289 292 292 290 287 285 286 287 286 283 280 278 280 283 285 286 286 286 287 287 287 287 286 286 286 286 286 285 285 286 286 286 286 285 285 283 281 279 278 276 274 272 271 270 270 269 269 269 268
292 292 292 292 292 291 292 294 297 301 303 304 303 302 301 299 298 296 295 294 292 291 291 290 288 286 285 285 288 291 293 294 293 291 288 284 284 289 292 292 290 288 287 288 288 288 286 284 284 285 285 285 285 285 285 285 285 285 284 284 284 285 285 285 284 284 284 285 285 285 284 283 281 279 278 276 276 276 275 274 274 273 272 271 270 269
296 295 295 295 296 297 299 301 302 302 303 302 302 301 300 300 299 297 295 292 290 288 287 286 285 287 289 293 294 294 295 295 292 288 285 284 285 288 290 290 289 287 287 288 289 288 288 287 287 286 284 284 283 283 282 282 282 282 282 282 283 283 283 283 283 282 282 283 283 282 282 280 279 278 277 277 277 278 277 277 276 275 273 272 270 268
298 298 299 299 300 301 301 301 301 301 301 301 301 302 302 302 300 298 294 292 290 289 289 287 287 290 294 296 295 294 295 295 292 287 284 284 285 287 288 288 287 285 286 288 290 290 290 289 288 286 284 281 280 280 278 279 279 280 280 280 281 282 282 281 281 281 281 281 281 281 280 279 278 278 278 278 278 277 277 276 275 274 272 271 269 267
301 301 301 301 301 301 301 301 301 301 301 301 301 301 301 301 299 296 293 292 293 293 292 290 289 292 293 293 292 293 295 296 294 289 284 283 283 284 286 288 288 287 289 291 292 291 289 288 286 284 281 278 276 276 275 275 276 277 278 280 281 281 281 281 280 280 280 280 280 279 279 278 278 278 277 277 275 274 274 273 272 271 270 268 266 265
303 303 302 302 302 302 301 301 301 301 301 300 300 300 300 299 296 293 292 293 294 294 291 289 290 291 290 288 291 294 295 295 293 290 286 283 280 282 287 291 292 292 293 293 292 290 288 285 283 280 278 276 275 274 274 274 274 276 279 281 282 282 282 281 280 280 280 279 279 278 278 277 277 276 275 273 273 272 271 270 270 269 268 266 263 261
306 305 304 303 303 302 302 301 301 300 299 299 299 299 299 296 292 289 290 292 292 291 289 288 288 289 289 290 293 294 294 293 293 293 292 289 285 286 290 293 294 294 294 294 293 292 288 285 283 281 279 279 278 277 277 277 277 279 281 282 282 281 280 280 279 279 279 278 278 278 277 276 275 274 273 273 273 273 273 272 272 271 270 267 263 260
309 308 306 305 304 303 302 301 300 299 298 298 298 298 296 293 288 286 287 288 288 287 287 289 290 291 291 292 292 291 291 293 296 299 301 298 291 289 292 293 293 293 295 295 295 293 290 289 289 288 286 286 285 285 285 285 283 282 282 281 280 279 278 278 278 278 278 278 278 278 277 277 276 276 276 277 277 277 276 275 274 273 271 268 265 262
310 309 307 306 305 304 303 302 300 299 298 297 297 296 295 291 288 286 286 286 284 283 285 288 289 290 291 291 290 287 290 296 299 302 303 297 291 288 291 292 292 292 293 293 293 296 295 294 296 296 294 293 291 290 289 288 286 284 283 282 279 278 277 279 280 280 280 280 279 279 279 279 279 280 280 280 279 278 276 274 272 270 268 266 263 259
309 308 307 306 305 304 303 302 301 300 299 298 298 297 295 293 290 288 287 285 283 282 284 286 288 288 288 285 282 283 288 294 298 300 299 294 289 288 290 291 291 292 292 289 288 291 296 299 301 300 298 295 293 291 289 287 284 282 283 282 280 279 281 284 285 285 283 283 282 282 282 282 281 281 280 279 278 276 274 272 270 267 264 261 257 254
308 307 306 305 304 303 302 301 301 300 300 299 299 298 297 295 293 291 288 286 285 284 284 285 287 287 286 284 282 283 286 290 294 297 297 294 291 290 291 292 291 292 292 290 287 286 286 289 298 299 298 295 293 292 290 288 285 282 282 282 282 283 286 288 288 287 287 286 285 284 283 282 281 280 279 277 276 274 273 271 268 265 261 258 254 251
307 305 305 304 304 303 303 302 302 302 301 301 301 300 299 298 296 294 292 289 287 286 285 284 285 286 287 286 285 285 287 290 293 296 297 295 291 290 292 292 292 293 293 292 290 289 286 287 292 296 297 296 295 294 292 290 289 287 287 288 289 289 290 290 289 289 288 287 285 284 283 281 280 279 278 277 275 273 271 268 266 263 259 256 252 248
306 305 305 305 305 305 305 305 305 305 304 303 303 302 301 300 298 296 294 292 291 288 286 284 283 283 284 286 287 288 290 292 294 296 296 293 290 289 291 291 292 293 293 292 292 291 286 288 291 293 293 296 296 296 295 294 294 295 295 295 293 292 290 289 288 288 287 286 285 283 281 280 279 278 278 276 275 272 270 268 265 263 259 256 252 248
305 305 306 307 308 308 308 309 308 308 307 306 305 304 303 302 300 298 296 295 294 292 289 286 284 282 282 282 283 285 287 291 293 295 294 291 289 288 289 290 292 292 291 291 290 289 287 287 291 293 292 291 294 297 298 299 300 300 299 298 295 293 290 289 287 286 286 285 283 282 281 280 279 278 277 276 275 273 271 269 267 264 261 258 254 250
304 305 307 309 311 311 311 310 310 309 308 307 306 305 304 303 302 300 297 296 294 293 291 288 286 284 281 280 280 282 284 287 289 291 290 289 287 286 285 287 289 289 288 289 290 291 290 288 289 289 288 287 291 298 301 303 304 303 301 299 298 295 292 290 287 285 283 282 281 281 281 280 279 279 278 278 277 276 274 271 268 266 263 259 256 251
306 308 310 312 313 313 312 311 310 309 309 308 307 305 304 303 302 300 298 296 294 292 292 289 287 286 285 283 281 282 283 284 285 287 288 287 286 284 283 284 285 286 285 286 287 289 290 288 290 291 292 292 295 298 300 303 304 304 303 302 299 296 293 290 288 286 283 281 281 282 283 282 281 281 280 280 279 278 275 273 271 267 263 260 257 253
309 311 313 313 314 313 312 310 309 309 308 307 306 304 303 302 301 300 298 297 295 294 292 290 288 287 287 285 284 284 284 284 285 286 287 287 285 284 283 283 284 285 285 284 284 285 286 287 289 295 299 300 299 299 300 302 303 303 303 304 302 299 295 293 291 289 286 284 284 284 285 285 284 283 281 281 279 277 274 272 270 268 263 258 255 253
313 313 313 313 312 311 310 309 308 308 307 306 305 304 303 302 302 302 301 299 298 296 295 293 290 288 287 286 285 285 286 286 287 287 287 286 285 284 282 282 283 284 286 285 284 284 286 289 293 296 297 297 297 299 300 301 301 301 303 304 304 302 301 298 296 293 291 288 286 286 286 287 287 285 282 281 278 276 274 272 271 268 263 255 250 248
314 314 313 312 312 310 309 308 308 308 308 307 306 305 305 304 305 305 304 304 302 301 300 298 296 293 291 289 288 288 288 288 288 287 287 287 287 285 283 282 283 286 288 289 289 289 291 294 295 295 294 293 294 295 297 297 297 298 299 298 297 299 300 300 298 296 295 293 292 291 290 290 290 289 287 285 282 279 278 276 274 271 267 259 250 242
313 312 312 312 311 310 310 309 309 309 309 308 307 306 305 306 306 306 306 306 306 306 305 304 301 299 296 294 293 293 293 292 291 291 290 290 290 288 286 286 287 290 293 294 295 295 295 295 293 291 290 291 293 294 294 294 295 295 295 294 296 299 302 303 303 302 302 300 299 298 296 294 294 294 293 292 291 290 289 285 281 276 271 263 254 246
312 311 310 310 310 310 310 310 311 311 311 310 309 307 307 307 306 306 306 305 306 306 307 305 303 300 298 298 300 301 301 299 297 296 295 295 294 294 294 295 297 297 298 298 298 298 296 294 291 288 287 289 290 290 288 291 293 294 294 294 296 300 303 306 308 308 308 305 304 302 301 299 298 299 300 299 300 301 302 299 296 290 281 272 262 254
311 310 310 310 311 312 312 312 313 312 312 310 309 308 308 308 307 306 306 305 305 304 304 304 303 301 300 301 303 306 306 304 302 301 300 301 303 305 306 305 303 302 300 298 297 297 296 295 291 289 288 287 286 284 284 287 290 292 294 295 296 295 292 297 302 305 307 307 307 307 306 306 306 305 305 305 306 309 312 313 313 311 307 298 284 269
312 312 312 312 313 313 313 313 313 312 311 310 308 308 309 309 309 308 307 306 305 304 305 305 305 304 305 305 307 308 309 308 308 308 310 312 314 315 313 310 307 305 303 300 297 294 293 292 291 290 290 287 283 280 280 283 287 291 294 297 298 295 292 294 297 300 302 304 306 309 312 313 312 310 308 308 310 315 321 325 326 327 329 329 323 310
313 313 313 314 313 313 312 312 313 312 312 310 310 309 310 311 310 309 308 306 305 305 306 307 306 305 305 307 309 310 310 312 314 316 319 320 321 320 318 315 313 311 309 305 301 296 290 285 284 286 288 287 284 280 278 280 283 288 294 299 301 301 299 299 299 300 301 303 306 311 317 319 318 315 311 311 315 321 330 336 339 340 342 344 344 342
314 314 314 313 313 313 313 313 313 313 312 311 311 311 312 312 312 311 310 309 307 307 308 309 307 304 302 305 307 309 310 313 317 320 323 323 323 322 321 320 319 318 314 310 306 301 296 289 283 280 278 279 281 283 281 282 284 287 293 298 302 304 304 304 305 307 309 309 311 316 323 325 323 320 320 321 322 328 337 346 351 353 353 353 353 353
314 314 313 313 312 312 313 314 314 313 312 311 311 312 314 314 313 312 311 311 310 309 309 309 308 305 304 305 307 308 310 314 318 321 323 324 324 324 323 323 323 323 322 320 316 312 308 303 295 284 273 265 265 279 284 287 290 292 294 298 301 302 303 304 309 314 319 321 325 329 332 331 329 327 325 326 329 337 346 352 357 359 360 359 359 358
313 313 312 312 312 312 312 313 314 313 312 311 312 314 315 315 315 313 312 311 310 309 308 308 308 307 308 309 310 311 314 317 319 320 322 323 324 325 326 326 327 327 328 328 328 328 327 326 320 305 283 265 261 267 279 288 295 298 299 299 300 301 303 307 314 320 327 331 338 343 345 344 343 340 335 331 327 340 353 359 2 2 3 3 4 4
313 312 312 312 312 311 311 312 313 313 312 312 312 313 314 316 316 315 313 312 311 310 308 308 308 308 310 311 313 315 318 320 321 321 322 324 325 326 326 328 329 330 331 333 335 337 337 337 337 333 316 285 270 269 277 290 299 304 306 307 308 310 311 314 321 328 334 338 344 349 353 354 355 354 351 345 337 343 359 6 7 6 5 7 8 9
314 313 313 312 312 311 311 311 312 311 311 311 312 312 313 314 315 316 315 315 314 312 311 310 309 310 311 313 315 318 320 320 320 321 322 324 326 326 326 327 330 331 333 334 337 339 340 336 334 334 333 331 317 300 295 301 306 310 314 320 325 327 327 326 331 336 341 344 349 353 357 359 360 0 359 356 350 346 358 7 8 8 8 9 11 12